Wind_Speed
64 66 67 69 69 70 69 68 67 66 65 64 64 63 63 64 65 66 68 70 72 74 73 72 76 76 75 78 76 76 73 74 77 76 72 70 68 64 64 57 54 51 47 43 45 44 45 49 52 48 46 49 52 56
78 80 82 83 81 80 79 78 77 75 73 72 72 71 71 71 72 72 73 74 77 77 76 78 78 77 78 77 77 75 76 79 87 82 78 76 72 71 68 65 64 58 53 51 49 47 49 53 53 50 44 41 50 53
91 91 91 91 92 92 89 87 84 81 79 78 77 76 76 75 75 74 75 76 75 76 74 74 76 80 79 79 81 81 81 80 82 88 83 79 80 79 76 73 73 68 63 58 57 54 56 52 51 44 45 47 52 55
93 92 91 90 89 89 88 87 86 85 84 83 82 80 79 77 76 75 72 70 70 69 70 71 73 73 76 78 83 87 90 88 89 90 94 92 86 89 87 82 77 73 71 65 61 61 57 54 49 43 49 54 52 54
84 80 77 75 75 78 81 83 84 81 77 74 73 72 70 68 67 65 63 62 64 65 64 66 58 53 52 55 60 69 82 91 98 99 100 100 97 94 89 86 79 81 76 71 69 67 63 58 52 45 51 57 55 51
62 59 56 54 52 52 55 58 62 69 72 71 68 64 59 57 55 54 55 55 56 55 49 44 43 43 43 45 48 52 56 66 80 98 105 106 105 103 95 88 86 86 80 79 76 73 66 63 58 55 53 51 55 55
46 43 40 37 36 34 35 36 39 44 51 56 56 53 50 47 46 45 45 48 45 39 38 39 40 39 40 40 41 41 45 50 59 69 87 104 108 110 104 94 88 90 91 82 79 76 71 70 64 60 63 60 58 59
38 33 30 26 22 21 20 20 23 26 30 35 38 41 40 39 39 41 42 37 33 34 37 36 37 35 31 33 33 32 33 38 45 54 64 77 94 105 105 99 95 95 94 89 86 84 81 78 69 62 63 65 60 55
32 27 22 19 14 10 8 7 8 10 14 19 24 28 33 33 36 33 29 29 30 33 34 34 31 31 26 26 27 25 25 27 33 41 50 59 71 84 108 106 103 103 99 95 91 85 81 78 73 68 64 67 68 58
33 29 25 21 18 15 13 10 9 8 8 9 13 17 21 21 20 22 25 28 29 26 25 24 23 22 20 21 21 18 16 18 23 28 36 46 58 69 80 103 117 107 103 93 91 89 84 81 79 75 73 70 74 67
36 34 33 32 30 28 26 23 21 17 12 9 7 7 10 13 18 21 21 19 18 17 17 17 17 15 14 15 15 13 9 9 12 16 25 35 44 53 64 84 102 107 102 96 94 93 89 84 82 80 78 76 75 74
40 39 39 37 35 32 27 22 17 12 7 4 3 5 7 10 11 11 11 10 10 11 12 13 13 9 6 6 6 5 5 4 4 6 13 22 31 40 51 67 85 96 102 102 99 96 96 93 90 87 85 83 83 81
35 36 35 33 31 30 29 26 21 16 12 9 6 5 5 5 6 6 3 0 2 3 5 5 7 8 8 7 6 6 5 5 2 1 4 9 16 27 40 54 68 81 94 101 103 103 99 98 98 95 91 89 89 87
35 36 36 34 31 28 28 29 27 24 20 17 15 11 9 8 9 13 17 16 17 16 18 20 22 25 27 29 29 28 24 20 15 9 6 4 12 20 29 40 52 64 74 84 94 101 101 99 97 97 97 97 94 90
31 31 32 34 35 34 30 26 23 23 21 21 18 15 16 16 16 16 20 24 27 27 29 33 34 35 46 49 50 49 50 48 41 28 15 2 9 12 17 25 35 47 58 66 75 84 92 97 99 99 98 99 98 96
26 28 29 31 30 30 29 29 29 24 18 19 20 14 11 16 24 25 23 23 30 32 33 39 46 42 51 49 50 49 47 43 38 34 32 25 12 3 10 14 21 27 32 41 51 62 69 78 87 92 96 98 100 99
23 26 27 26 26 24 24 24 23 22 19 16 13 14 17 18 18 18 18 28 25 36 44 42 49 46 47 48 44 42 40 38 37 36 32 26 19 14 8 0 12 19 22 26 32 41 50 56 63 73 83 94 99 100
24 25 27 28 28 26 23 22 20 17 16 13 13 6 10 12 13 12 14 38 47 40 49 43 46 48 47 45 39 37 34 34 31 33 36 33 26 12 5 8 11 13 17 20 26 32 39 46 50 58 67 74 84 95
28 28 30 28 26 24 22 18 16 16 17 15 9 8 4 6 9 10 14 45 47 48 46 47 44 40 39 33 31 31 31 29 30 29 31 35 40 33 17 2 6 13 17 16 22 30 34 37 41 46 56 62 68 80
30 31 33 33 30 24 18 15 13 11 11 11 9 4 3 4 8 10 16 42 48 44 44 44 42 33 35 29 28 28 31 26 26 27 29 28 30 35 40 29 19 16 14 5 10 17 20 24 26 29 44 54 58 65
34 33 32 35 34 28 22 17 14 12 10 9 9 9 9 11 13 14 15 31 44 41 41 41 35 30 35 30 30 33 30 28 25 30 35 37 35 35 37 42 36 27 22 19 13 7 4 11 17 26 35 40 45 44
36 42 37 36 38 39 33 28 24 22 20 19 19 19 22 23 21 18 16 22 46 27 40 38 33 25 25 37 33 30 27 28 26 31 32 37 32 32 36 40 38 27 23 20 15 11 10 10 21 20 15 21 24 28
23 28 40 42 36 38 36 37 35 32 36 37 38 40 44 43 40 34 25 15 31 32 35 37 28 22 27 35 29 26 25 25 24 26 31 32 32 31 36 43 37 34 41 43 40 38 39 36 33 32 31 27 25 24
22 28 35 36 32 26 31 33 34 43 49 46 43 40 38 35 27 24 24 17 27 30 28 32 24 26 36 30 28 25 22 22 23 22 25 29 29 33 31 36 35 39 43 48 50 53 56 54 50 44 44 47 49 48
24 22 24 29 40 33 29 26 34 37 34 33 31 33 31 30 28 30 29 27 23 18 26 26 26 30 23 28 26 23 22 23 21 17 19 20 19 24 31 28 28 35 39 49 52 53 54 52 48 46 40 38 41 48
24 23 22 27 30 38 34 27 28 26 22 22 21 21 24 23 21 17 21 18 11 6 12 29 22 29 32 27 25 22 20 21 21 15 13 17 13 16 19 22 17 24 32 38 49 50 50 47 47 45 45 45 45 45
14 18 21 24 25 26 29 29 28 21 18 16 13 16 18 15 14 14 18 20 15 12 7 13 30 26 28 30 22 24 23 21 24 25 23 19 11 15 17 17 22 16 20 31 41 43 28 17 19 37 39 46 18 35
8 11 12 16 20 19 22 22 22 23 22 23 24 20 17 6 9 9 10 14 14 13 9 4 19 24 31 27 20 26 24 29 26 25 23 22 20 20 14 11 10 9 8 24 32 34 33 31 33 33 22 20 28 33
8 8 8 8 9 11 12 12 13 14 16 18 17 17 18 13 13 13 8 3 4 6 4 3 3 14 29 33 29 28 30 27 32 34 28 28 29 27 23 17 20 19 14 23 32 25 27 30 30 32 30 29 32 36
7 8 8 9 9 8 8 8 4 3 4 3 5 7 11 13 11 10 9 7 7 7 4 6 6 6 10 19 20 22 27 25 32 34 36 35 34 36 34 30 28 28 27 25 27 35 28 29 31 35 36 37 37 37
9 11 12 12 12 12 13 14 14 12 11 11 11 11 11 9 10 11 10 10 10 9 6 5 8 12 14 14 16 17 18 21 24 26 34 42 46 43 41 39 40 38 37 36 36 37 37 38 35 35 38 42 43 42
14 16 17 20 21 23 22 21 19 19 19 19 20 20 21 20 20 19 19 18 16 15 16 15 14 12 12 15 19 19 20 23 24 24 26 31 39 48 55 47 46 45 45 44 46 45 43 44 42 42 44 45 45 46
15 17 18 19 19 22 23 25 24 24 24 24 24 24 24 24 25 25 25 25 26 27 27 26 25 23 20 20 20 20 20 21 24 27 29 30 31 36 42 55 59 55 54 50 53 52 56 53 51 53 53 53 53 55
Wind_Direction
294 291 288 286 283 281 278 275 273 272 270 269 268 268 267 267 267 268 269 270 271 271 270 268 266 264 263 261 259 254 248 243 239 240 237 236 234 233 234 234 235 235 234 234 230 232 230 230 229 222 220 215 218 218
291 289 286 283 281 278 275 272 270 269 268 267 267 267 267 267 268 269 271 271 271 272 271 268 267 266 264 261 256 251 245 241 238 238 237 235 234 233 231 232 232 231 234 233 233 232 234 232 230 224 222 222 221 218
292 289 284 280 277 275 272 268 265 264 263 264 264 265 266 267 269 270 270 271 271 270 269 267 266 263 262 259 254 251 246 242 239 238 238 236 233 231 231 229 230 229 229 230 231 232 234 235 234 226 221 223 223 220
293 288 284 279 275 272 270 268 266 264 263 261 261 263 265 267 269 271 271 271 272 272 271 271 269 268 264 259 254 251 248 243 237 236 233 232 231 231 228 225 227 229 229 226 230 233 237 237 236 226 224 225 223 222
296 292 288 284 280 275 271 267 263 262 260 260 262 263 264 266 268 269 270 271 272 274 274 274 271 265 262 259 256 251 247 241 237 233 233 232 232 232 228 227 226 227 227 227 227 231 233 236 235 226 228 228 225 222
304 299 295 291 285 281 273 267 263 260 258 257 257 259 262 264 266 269 271 272 275 278 273 267 267 267 268 267 263 259 251 244 238 234 232 229 231 231 229 228 225 227 227 226 225 227 231 233 231 233 235 235 231 227
312 309 304 299 291 285 277 268 262 258 254 252 252 254 259 263 266 269 272 276 275 268 266 271 272 272 270 267 267 264 255 246 240 235 231 230 228 228 229 226 224 226 227 225 227 228 227 230 227 226 232 232 229 227
327 325 322 316 306 294 284 269 261 258 250 244 242 246 252 260 265 271 274 269 264 265 271 274 274 275 272 267 269 274 261 249 241 236 232 229 229 227 224 224 225 227 227 224 223 223 223 226 227 223 225 236 234 231
347 346 346 346 344 335 317 286 265 246 228 222 225 235 245 256 264 263 259 261 267 272 274 274 272 275 273 269 270 278 274 260 243 235 230 226 226 226 224 222 225 226 226 224 224 224 224 226 227 223 220 226 235 232
15 18 22 28 36 44 54 72 94 112 144 185 212 229 241 242 246 255 266 273 277 276 274 274 274 270 267 262 263 268 271 263 250 235 228 224 223 221 219 219 222 224 227 225 225 225 224 224 225 222 219 219 230 233
38 43 49 54 58 62 67 72 78 87 101 120 151 195 235 255 265 273 276 276 274 275 273 272 272 270 263 258 258 261 262 251 243 233 226 223 224 221 218 218 221 224 226 226 225 225 225 222 224 223 220 221 224 232
39 42 45 48 51 52 52 53 56 56 53 36 323 288 280 276 280 280 277 274 284 290 287 276 267 262 263 253 249 254 262 252 217 221 220 225 224 221 217 218 219 220 223 225 226 226 225 224 223 223 221 220 222 223
33 38 42 44 46 48 47 48 50 53 51 39 15 346 325 304 292 285 288 256 102 62 56 74 89 99 97 89 85 74 68 53 52 188 193 217 221 221 218 219 220 221 221 223 226 226 226 226 225 224 224 223 222 223
36 38 37 36 38 41 45 45 47 47 45 35 32 46 63 70 79 101 109 103 96 89 87 85 88 86 87 84 83 79 77 72 62 45 14 265 227 221 216 218 221 224 226 226 227 228 228 228 228 226 225 226 224 223
30 33 36 38 40 41 43 43 41 41 38 37 51 77 96 93 95 101 97 91 91 97 97 100 100 100 97 91 89 84 76 71 71 68 69 70 254 247 232 227 228 226 227 228 229 229 230 230 229 228 226 225 225 224
32 34 35 35 37 37 37 38 38 39 41 41 43 53 76 95 81 75 79 94 111 111 110 111 111 107 102 96 86 77 69 64 62 61 53 40 29 343 260 243 231 229 229 233 236 237 236 231 230 229 228 227 225 224
31 27 26 21 21 23 22 24 26 30 40 49 56 64 78 84 84 81 81 118 116 125 123 122 115 107 101 93 86 81 77 74 65 60 56 46 33 26 38 76 220 229 243 247 242 241 238 234 231 231 230 226 221 223
17 12 7 2 358 357 358 0 6 16 20 30 47 93 92 97 88 93 80 141 137 132 129 123 116 109 100 94 97 89 83 73 73 65 54 45 33 22 298 280 265 254 246 242 243 242 237 236 232 225 225 223 224 224
8 2 354 351 345 340 337 337 343 348 352 359 13 50 115 149 121 113 115 146 145 135 132 124 118 109 104 107 104 97 89 89 80 74 68 57 47 41 47 128 249 248 250 248 251 248 242 237 231 222 218 219 217 219
15 14 14 10 6 358 348 344 346 348 343 338 339 351 46 116 138 119 124 150 152 145 137 131 125 118 122 104 105 104 97 92 82 72 64 56 53 42 41 38 30 20 17 304 266 256 247 241 237 219 213 211 213 215
25 23 23 18 16 22 27 24 19 22 27 32 37 41 58 85 114 115 130 155 164 152 144 140 134 132 123 113 111 108 96 81 77 77 69 59 54 48 38 33 29 23 19 25 9 337 269 208 195 198 205 209 204 205
36 33 34 29 31 38 44 45 46 53 61 68 72 80 89 94 91 91 101 148 167 167 150 148 139 134 131 122 113 106 98 95 87 81 68 60 51 47 44 35 35 33 30 38 52 70 97 138 127 119 150 177 182 189
33 31 29 34 37 41 48 56 60 66 74 78 84 87 86 82 76 69 66 90 179 182 148 154 147 142 140 132 125 112 111 104 89 80 76 65 60 57 52 50 55 72 75 77 84 87 85 89 93 101 104 110 119 132
33 36 32 30 40 47 47 56 75 86 87 83 80 81 84 85 85 92 84 77 172 158 161 162 157 160 143 136 142 121 120 110 100 90 71 68 69 67 59 55 65 64 75 80 83 88 89 86 88 92 94 97 103 103
41 42 34 43 39 50 50 65 98 95 86 81 82 85 86 80 72 65 62 60 52 175 187 173 178 174 167 155 154 135 132 127 117 90 77 77 81 75 68 57 66 71 75 84 81 82 86 89 92 97 100 109 121 122
46 40 39 42 45 47 57 69 90 95 82 72 70 95 94 86 78 84 78 75 62 26 179 184 197 196 172 167 157 155 154 151 143 122 112 90 80 98 87 69 51 72 78 90 87 84 84 88 96 97 100 105 110 110
54 49 50 38 40 44 49 55 61 73 80 78 61 60 66 70 81 58 65 56 49 67 110 208 210 213 195 186 180 171 172 169 168 149 137 118 114 118 119 115 90 102 103 106 108 107 116 86 93 105 108 105 124 142
33 42 44 50 55 46 39 46 51 51 49 49 54 59 52 89 58 69 67 70 70 72 74 183 224 229 214 208 222 208 194 188 185 179 169 160 156 139 123 144 141 160 155 142 131 127 133 142 153 143 152 155 162 163
331 350 8 17 22 39 60 68 54 39 27 26 33 34 43 59 46 33 35 21 52 99 106 142 163 230 239 235 244 229 226 212 198 204 192 187 175 174 173 185 183 187 178 172 163 161 160 162 171 176 172 167 179 180
310 322 336 344 348 352 353 359 11 31 58 52 27 5 345 0 2 2 14 9 2 335 258 176 172 212 246 245 254 254 254 258 224 213 213 212 206 196 195 199 200 205 208 195 192 181 180 184 186 189 191 195 193 195
292 303 305 309 311 316 319 322 321 318 315 310 307 300 299 291 288 300 304 302 311 321 322 302 268 247 238 241 246 248 247 243 239 235 232 223 219 220 213 212 214 216 219 224 219 207 203 195 199 201 203 205 208 212
285 294 300 301 302 304 306 306 304 304 304 307 309 308 305 299 295 286 282 281 277 272 273 279 281 275 271 255 251 254 257 253 252 252 246 237 237 236 226 224 220 219 223 222 222 222 213 215 209 213 217 219 220 218
274 282 292 299 303 306 308 309 311 309 305 304 304 305 306 305 301 294 287 283 275 266 266 265 266 270 268 267 268 266 266 262 257 249 248 251 249 240 236 234 231 228 223 225 223 226 227 224 225 226 222 220 221 224
Height
10692 10685 10679 10674 10669 10665 10663 10661 10660 10660 10661 10660 10659 10660 10661 10661 10662 10663 10664 10663 10663 10662 10666 10670 10665 10669 10674 10672 10678 10681 10696 10705 10702 10707 10719 10727 10738 10748 10751 10762 10767 10772 10778 10785 10787 10793 10801 10801 10806 10815 10820 10832 10840 10853
10664 10656 10649 10643 10638 10634 10631 10630 10630 10631 10633 10634 10633 10634 10636 10636 10638 10639 10640 10638 10637 10635 10637 10636 10636 10639 10639 10642 10646 10652 10663 10673 10673 10685 10694 10706 10719 10726 10739 10746 10749 10758 10765 10769 10776 10783 10782 10786 10793 10806 10818 10828 10830 10838
10628 10617 10609 10602 10597 10593 10592 10593 10595 10598 10601 10604 10605 10607 10609 10611 10612 10614 10614 10612 10611 10609 10609 10607 10609 10604 10608 10612 10614 10621 10629 10641 10654 10661 10676 10686 10692 10701 10713 10724 10728 10739 10746 10753 10760 10768 10767 10775 10783 10801 10811 10812 10815 10825
10582 10569 10560 10555 10551 10549 10550 10552 10556 10562 10568 10573 10576 10580 10583 10586 10587 10587 10588 10587 10585 10583 10581 10579 10574 10576 10576 10579 10581 10586 10593 10609 10619 10631 10637 10649 10662 10668 10680 10694 10711 10720 10727 10739 10748 10752 10759 10766 10774 10788 10794 10796 10805 10813
10535 10523 10515 10510 10507 10507 10509 10514 10520 10526 10535 10542 10547 10553 10558 10561 10563 10564 10564 10563 10561 10558 10555 10548 10550 10547 10547 10546 10547 10550 10554 10568 10577 10593 10605 10620 10633 10642 10660 10676 10697 10698 10710 10724 10732 10736 10744 10753 10764 10776 10779 10785 10796 10804
10501 10491 10484 10479 10476 10475 10477 10481 10487 10495 10504 10513 10522 10530 10536 10540 10542 10543 10543 10542 10539 10536 10532 10530 10530 10530 10528 10526 10525 10525 10527 10532 10540 10552 10568 10585 10603 10612 10634 10655 10670 10678 10692 10702 10713 10722 10733 10742 10755 10764 10770 10779 10786 10795
10480 10472 10465 10460 10457 10456 10457 10460 10464 10470 10478 10488 10500 10511 10518 10522 10524 10525 10525 10523 10521 10518 10516 10516 10514 10514 10512 10509 10507 10506 10506 10508 10513 10522 10532 10547 10566 10582 10609 10634 10648 10654 10663 10685 10699 10710 10721 10725 10739 10751 10756 10761 10767 10775
10469 10461 10454 10449 10446 10445 10445 10447 10452 10456 10462 10472 10485 10495 10503 10507 10509 10510 10509 10507 10507 10507 10505 10504 10501 10499 10498 10495 10493 10491 10490 10491 10494 10500 10508 10520 10533 10552 10581 10613 10622 10630 10643 10662 10674 10683 10696 10704 10723 10739 10748 10749 10756 10769
10464 10457 10451 10446 10443 10441 10441 10443 10446 10450 10456 10465 10475 10484 10490 10495 10496 10496 10497 10497 10497 10495 10493 10491 10489 10487 10486 10485 10484 10483 10480 10479 10480 10484 10492 10502 10512 10533 10562 10584 10593 10603 10613 10635 10653 10670 10685 10696 10709 10723 10734 10738 10740 10754
10468 10460 10454 10449 10446 10445 10444 10446 10448 10452 10457 10464 10471 10477 10481 10484 10487 10488 10488 10487 10486 10483 10482 10481 10479 10478 10477 10476 10476 10477 10475 10474 10473 10477 10482 10491 10497 10510 10532 10550 10555 10575 10594 10622 10637 10651 10667 10679 10689 10703 10714 10723 10725 10736
10482 10473 10467 10462 10458 10456 10455 10456 10457 10460 10464 10468 10471 10475 10477 10479 10480 10480 10479 10478 10476 10474 10473 10472 10471 10470 10470 10471 10472 10473 10473 10472 10471 10474 10477 10482 10491 10503 10518 10533 10544 10564 10583 10600 10615 10628 10644 10661 10672 10684 10697 10708 10715 10720
10497 10489 10482 10477 10473 10471 10469 10468 10468 10469 10470 10472 10473 10474 10474 10474 10474 10473 10472 10471 10471 10470 10468 10466 10466 10467 10467 10468 10469 10470 10470 10471 10472 10473 10477 10480 10486 10495 10507 10517 10528 10544 10561 10575 10590 10604 10618 10634 10646 10657 10672 10684 10693 10701
10510 10503 10496 10491 10486 10483 10480 10477 10475 10474 10474 10473 10472 10472 10471 10471 10470 10469 10469 10469 10468 10468 10467 10465 10465 10467 10468 10469 10470 10472 10472 10473 10474 10475 10477 10481 10485 10490 10498 10505 10513 10523 10538 10552 10565 10577 10590 10604 10619 10635 10649 10661 10671 10683
10520 10513 10507 10502 10497 10493 10490 10486 10483 10481 10478 10476 10474 10473 10472 10470 10469 10468 10469 10470 10470 10471 10471 10470 10471 10471 10473 10474 10475 10476 10477 10478 10479 10480 10481 10483 10484 10486 10490 10496 10505 10514 10524 10535 10545 10555 10568 10580 10595 10610 10625 10636 10650 10666
10530 10523 10517 10512 10507 10502 10498 10495 10491 10489 10485 10483 10480 10479 10478 10477 10475 10475 10474 10475 10476 10476 10476 10477 10478 10478 10479 10480 10481 10481 10482 10483 10483 10484 10485 10486 10486 10486 10489 10493 10498 10502 10508 10516 10524 10532 10543 10555 10568 10581 10596 10609 10624 10639
10537 10531 10526 10521 10516 10512 10507 10503 10499 10495 10492 10490 10487 10486 10485 10484 10481 10481 10482 10483 10482 10482 10482 10482 10484 10484 10485 10486 10485 10485 10486 10487 10489 10490 10490 10489 10487 10486 10486 10487 10489 10493 10499 10504 10510 10515 10523 10532 10541 10554 10565 10581 10595 10609
10543 10538 10532 10527 10522 10517 10512 10508 10504 10500 10497 10495 10494 10492 10491 10490 10489 10488 10488 10488 10487 10487 10487 10487 10490 10491 10492 10491 10492 10493 10495 10497 10497 10495 10493 10492 10491 10488 10486 10487 10487 10489 10492 10495 10499 10502 10505 10508 10514 10526 10539 10549 10564 10581
10547 10541 10535 10530 10524 10518 10513 10508 10505 10502 10499 10498 10496 10496 10495 10495 10494 10494 10493 10494 10492 10491 10492 10493 10496 10498 10497 10498 10501 10501 10502 10501 10501 10500 10499 10497 10494 10490 10488 10487 10486 10486 10486 10486 10486 10485 10487 10488 10493 10502 10508 10520 10536 10552
10550 10543 10535 10528 10521 10515 10510 10507 10503 10500 10498 10497 10496 10496 10496 10497 10497 10497 10497 10499 10498 10498 10498 10501 10503 10505 10505 10506 10506 10506 10507 10507 10505 10504 10503 10501 10498 10494 10489 10490 10487 10483 10481 10479 10476 10473 10472 10471 10474 10481 10491 10500 10514 10528
10553 10545 10537 10528 10519 10512 10507 10503 10500 10498 10497 10496 10495 10495 10496 10497 10499 10500 10501 10504 10504 10504 10506 10509 10510 10513 10513 10513 10512 10512 10511 10512 10510 10508 10506 10504 10500 10498 10495 10491 10485 10481 10478 10474 10470 10466 10464 10464 10467 10473 10480 10490 10502 10514
10557 10549 10541 10533 10523 10513 10507 10503 10500 10498 10497 10496 10496 10496 10497 10499 10502 10504 10505 10507 10509 10511 10514 10515 10517 10520 10520 10519 10519 10519 10519 10519 10518 10516 10514 10512 10508 10503 10500 10495 10487 10480 10476 10470 10465 10461 10460 10462 10466 10471 10478 10490 10500 10513
10563 10557 10548 10540 10530 10521 10515 10510 10506 10503 10501 10500 10500 10501 10503 10505 10508 10510 10511 10513 10517 10517 10519 10523 10525 10526 10527 10526 10527 10525 10525 10524 10524 10523 10520 10517 10515 10511 10507 10502 10491 10485 10479 10475 10472 10469 10468 10470 10472 10477 10484 10493 10506 10515
10570 10565 10555 10547 10541 10534 10529 10522 10518 10514 10511 10511 10512 10513 10515 10516 10518 10519 10520 10520 10520 10522 10528 10531 10532 10533 10533 10532 10533 10532 10532 10531 10530 10528 10527 10525 10520 10517 10515 10510 10504 10498 10490 10485 10482 10478 10480 10482 10485 10488 10493 10501 10512 10525
10575 10568 10562 10558 10551 10547 10541 10536 10533 10529 10526 10526 10527 10527 10527 10527 10527 10527 10527 10526 10526 10530 10534 10536 10537 10537 10538 10538 10538 10536 10538 10538 10537 10536 10534 10532 10530 10527 10525 10522 10519 10513 10509 10503 10500 10497 10497 10499 10503 10511 10517 10524 10531 10543
10579 10576 10572 10569 10562 10553 10550 10548 10545 10541 10540 10538 10537 10538 10539 10539 10538 10539 10537 10535 10534 10536 10539 10539 10541 10542 10542 10544 10544 10543 10543 10543 10543 10542 10541 10540 10539 10537 10534 10533 10531 10527 10526 10522 10520 10520 10521 10522 10524 10528 10538 10546 10555 10562
10585 10582 10579 10574 10570 10566 10561 10558 10556 10554 10552 10551 10549 10548 10547 10547 10547 10546 10543 10542 10541 10538 10540 10543 10543 10545 10547 10546 10548 10548 10548 10548 10547 10547 10548 10548 10548 10547 10545 10544 10542 10543 10544 10541 10537 10542 10546 10549 10549 10554 10560 10566 10573 10580
10590 10588 10585 10580 10577 10574 10571 10568 10566 10562 10561 10561 10559 10556 10554 10554 10555 10552 10550 10548 10546 10545 10545 10546 10546 10547 10550 10551 10551 10551 10551 10552 10553 10552 10551 10553 10556 10555 10555 10554 10553 10554 10555 10557 10555 10552 10560 10570 10577 10574 10577 10578 10595 10593
10593 10591 10589 10587 10584 10581 10578 10575 10574 10571 10570 10567 10564 10562 10561 10560 10560 10558 10556 10554 10552 10550 10550 10549 10548 10549 10551 10553 10553 10555 10555 10556 10557 10558 10557 10556 10558 10560 10561 10560 10560 10560 10561 10564 10565 10565 10566 10570 10576 10579 10585 10594 10598 10603
10593 10592 10591 10589 10588 10586 10584 10582 10579 10576 10574 10572 10570 10568 10567 10565 10564 10562 10560 10558 10556 10554 10553 10551 10550 10549 10549 10550 10552 10553 10556 10556 10554 10557 10557 10557 10558 10559 10560 10562 10562 10564 10565 10567 10569 10571 10571 10573 10578 10581 10584 10588 10591 10596
10593 10592 10591 10590 10588 10587 10585 10583 10581 10579 10577 10575 10573 10571 10569 10567 10565 10563 10562 10561 10558 10555 10554 10552 10550 10549 10547 10547 10548 10548 10550 10551 10552 10552 10554 10555 10555 10555 10559 10561 10563 10566 10567 10568 10571 10571 10572 10575 10575 10579 10584 10588 10590 10593
10592 10591 10590 10588 10587 10585 10584 10583 10581 10579 10577 10575 10573 10570 10568 10566 10564 10562 10560 10559 10558 10556 10553 10551 10549 10548 10546 10545 10544 10544 10544 10544 10545 10547 10548 10550 10551 10551 10553 10555 10558 10560 10563 10565 10566 10567 10570 10572 10573 10576 10579 10581 10584 10587
10590 10589 10587 10585 10584 10582 10581 10579 10578 10576 10573 10571 10569 10567 10564 10562 10560 10557 10555 10554 10552 10550 10547 10547 10545 10543 10542 10542 10541 10540 10540 10539 10539 10539 10541 10543 10544 10544 10546 10547 10548 10552 10554 10557 10560 10562 10563 10564 10566 10567 10570 10572 10574 10576
10587 10586 10585 10582 10580 10579 10576 10574 10572 10570 10568 10565 10563 10561 10559 10555 10552 10549 10547 10545 10543 10542 10539 10538 10537 10536 10536 10535 10534 10533 10532 10532 10531 10531 10531 10531 10532 10534 10536 10537 10539 10541 10543 10546 10549 10551 10554 10556 10558 10559 10559 10559 10562 10563